FENGYUN 1C DEB, 29956

Orbit data source: Space-Track

FENGYUN 1C DEB, 29956 is space debris in SSO originally from a launch on Mon, 10 May 1999 UTC launched from the Taiyaun Space Center, China (TSC). Fengyun 1C debris stems from the Chinese weather satellite Fengyun-1C, which was intentionally destroyed by a Chinese anti-satellite missile in 2007. This event dramatically increased the amount of space debris, with thousands of trackable fragments posing hazards to satellites and human spaceflight. The Fengyun 1C debris cloud has become a focal point in discussions about space sustainability and the need for international regulations to prevent the creation of new debris.

Loading next visibility...
Identifier
29956, 1999-025KE
Orbit
SSO
Country
Flag of CNCN / PRC
Related business
Manufacturer
Unknown
Mission
Spacecraft
Bus & Motor
Unknown
Mass
Unknown
Launch date (UTC)
1999-05-10 (27 years ago)
Launch vehicle
Unknown
Launch site
Taiyaun Space Center, China (TSC)
Object type
Payload
Rocket body
Debris
Shape & HBR
Unknown shape, 0.8 m
Radar Cross Section
Medium (>0.1 m² and <1 m²)

Expand to show TLE details & history
Last TLE update: 22 hours ago

TLE from 22 hours ago
0 FENGYUN 1C DEB
1 29956U 99025KE  25312.56754094  .00000041  00000-0  49796-4 0  9993
2 29956  98.7961 342.4082 0054453 112.1241  39.5904 14.06157532965698
Epoch: 2025-11-08T13:37Z
TLE epoch observation values (Epoch: 2025-11-08T13:37:15.537Z)
Latitude
27.57119°
Longitude
-85.29205°
Altitude
845.563 km
Speed
7.448 km/s
True Right ascension
11h 08m 04s
True Declination
27° 25' 55"
Sunlit
Object was in daylight at epoch
Visualization orbit readout
Latitude
Unknown
Longitude
Unknown
Altitude
Unknown
Speed
Unknown
Apparent Right ascension
Unknown
Apparent Declination
Unknown
Sunlit
N/A
Visualization observer readout
Local Sidereal Time
07:48:36
Azimuth
Unknown
Elevation
Unknown
Doppler factor
Unknown
Orbital elements
Apogee altitude
909.198 km
Perigee altitude
830.265 km
Semi-major axis
7,247.869 km
Eccentricity
0.00545
Inclination
98.7961°
RAAN
342.4082°
Arg. of periapsis
112.1241°
True anomaly
39.99016°
Mean anomaly
39.5904°
Eccentric anomaly
39.79007°
Mean motion
3.51745 °/min
Orbital period
102.35 mins
BSTAR
0.000049796
Loading maneuver chart data...
Computing Atmospheric mass density...

Documentation

Showing up to 5 results
|